[[{"header":{"parameterUnit":"m.s-1","parameterCategory":1,"la1":30.2991,"la2":30.254,"lo1":-89.0895,"lo2":-89.0444,"dy":0.0017,"dx":0.0017,"nx":28,"ny":28,"refTime":"2024-08-24T03:00:00:Z","depth":0,"parameterNumber":2,"parameterNumberName":"U-component_of_WINDS"},"data":[0,0,0,0,0,0,0,0,0,0,0,0,0,0,0,0,0,0,0,0,0,0,0,0,0,0,0,0,0,0,0,0,0,0,0,0,0,0,0,0,0,0,0,0,0,0,0,0,0,0,0,0,0,0,0,0,0,0,-5.3238,-5.3238,0,-5.3259,-5.3259,-5.3259,-5.3112,-5.3108,-5.3103,-5.31,-5.3124,-5.3129,-5.3133,0,0,0,0,0,0,0,0,0,0,0,0,0,-5.3072,-5.3076,-5.3238,-5.3238,-5.3238,-5.3259,-5.3259,-5.326,-5.3113,-5.3107,-5.3102,-5.3098,-5.3123,-5.3128,-5.3134,0,0,0,0,0,0,0,0,0,0,0,0,0,-5.3124,-5.3077,-5.3238,-5.3167,-5.3161,-5.3259,-5.3259,-5.326,-5.3114,-5.3107,-5.3101,-5.3095,-5.3121,-5.3128,-5.3134,-5.3302,0,0,-5.3155,-5.3158,0,0,0,0,0,0,0,0,-5.3121,-5.313,-5.3177,-5.3172,-5.3166,-5.3176,-5.321,-5.3274,-5.3115,-5.3132,-5.3099,-5.3092,-5.3147,-5.3151,-5.3169,-5.3303,-5.3304,-5.3156,-5.316,-5.3163,-5.3165,0,0,0,0,0,0,0,-5.3118,-5.3129,-5.3246,-5.3178,-5.3171,-5.3136,-5.3136,-5.3221,-5.3174,-5.313,-5.3119,-5.3124,-5.3142,-5.3163,-5.3168,-5.3304,-5.3156,-5.3162,-5.3166,-5.3169,-5.3577,-5.3584,0,0,0,0,0,0,-5.3123,-5.3127,-5.3245,-5.3247,-5.3128,-5.3144,-5.3144,-5.3179,-5.3173,-5.3166,-5.3129,-5.3117,-5.3154,-5.3161,-5.3169,-5.3365,-5.3163,-5.3169,-5.3173,-5.3571,-5.3579,-5.3586,0,0,0,0,0,0,-5.3121,-5.3135,-5.3245,-5.3184,-5.3195,-5.3153,-5.3194,-5.3183,-5.3203,-5.3172,-5.3163,-5.3158,-5.315,-5.3159,-5.327,-5.3364,-5.3172,-5.3179,-5.3563,-5.3573,-5.3582,-5.3758,0,0,0,0,0,0,-5.3116,-5.3135,-5.3198,-5.3186,-5.3199,-5.3345,-5.3199,-5.3188,-5.3215,-5.3199,-5.3197,-5.3191,-5.3145,-5.326,-5.3277,-5.337,-5.3184,-5.3554,-5.3567,-5.3579,-5.3744,-5.3773,-5.3798,0,0,0,0,0,-5.3111,-5.3247,-5.3202,-5.3217,-5.3276,-5.335,-5.3358,-5.3302,-5.3223,-5.3286,-5.3266,-5.3191,-5.3351,-5.3273,-5.329,-5.3387,-5.3548,-5.3563,-5.3578,-5.3732,-5.3768,-5.3798,0,0,0,0,0,0,-5.3271,-5.3244,-5.3194,-5.333,-5.3344,-5.3325,-5.3403,-5.3341,-5.3378,-5.3362,-5.3292,-5.3293,-5.3416,-5.3411,-5.3326,-5.3548,-5.3436,-5.3455,-5.3547,-5.358,-5.3607,-5.3606,-5.319,0,0,0,0,0,-5.3322,-5.3384,-5.3357,-5.348,-5.3489,-5.3446,-5.3476,-5.3432,-5.3443,-5.3449,-5.3437,-5.3452,-5.3506,-5.3542,-5.359,-5.3742,-5.3741,-5.3817,-5.3845,-5.3867,-5.3885,-5.3967,-5.4001,-5.3636,-5.3636,-5.3636,0,0,-5.3429,-5.3421,-5.3465,-5.3512,-5.3517,-5.3585,-5.3451,-5.3528,-5.3577,-5.346,-5.3564,-5.3556,-5.3569,-5.3702,-5.3759,-5.3702,-5.3985,-5.3886,-5.3905,-5.391,-5.3986,-5.4021,-5.4051,-5.3646,-5.3645,-5.3643,0,0,-5.3657,-5.3657,-5.3759,-5.3768,-5.3777,-5.3747,-5.3772,-5.3764,-5.3754,-5.3857,-5.3771,-5.3829,-5.3922,-5.3935,-5.3954,-5.4188,-5.4121,-5.4205,-5.4348,-5.4428,-5.4457,-5.4482,-5.4567,-5.4598,-5.4223,-5.4223,-5.4224,0,-5.3788,-5.3884,-5.382,-5.3903,-5.3927,-5.3823,-5.3928,-5.3939,-5.3964,-5.3984,-5.3919,-5.4034,-5.4035,-5.417,-5.4227,-5.4246,-5.4273,-5.4206,-5.4458,-5.4482,-5.4505,-5.4585,-5.4617,-5.4234,-5.4233,-5.4231,-5.4231,0,-5.4046,-5.4114,-5.4196,-5.4223,-5.4256,-5.4349,-5.43,-5.4341,-5.4294,-5.4272,-5.4378,-5.4376,-5.4421,-5.445,-5.4405,-5.4579,-5.4543,-5.447,-5.4355,-5.4551,-5.4625,-5.4656,-5.4249,-5.4245,-5.4242,-5.4239,0,0,-5.4376,-5.4366,-5.4397,-5.4409,-5.4412,-5.4464,-5.4553,-5.4597,-5.4634,-5.4655,-5.4729,-5.4811,-5.4742,-5.4764,-5.4719,-5.479,-5.4977,-5.4707,-5.4706,-5.4759,-5.5171,-5.5227,-5.5264,-5.4932,-5.4938,-5.4942,-5.517,0,-5.46,-5.475,-5.4695,-5.485,-5.4913,-5.4816,-5.4893,-5.4905,-5.4886,-5.4938,-5.4917,-5.4977,-5.4881,-5.4894,-5.4959,-5.4941,-5.5059,-5.4923,-5.5002,-5.5005,-5.5003,-5.5302,-5.5362,-5.5578,-5.5199,-5.5203,-5.5207,0,-5.4881,-5.4913,-5.5074,-5.5067,-5.5091,-5.5162,-5.5198,-5.5248,-5.526,-5.5241,-5.5266,-5.5206,-5.5294,-5.5179,-5.53,-5.5209,-5.5237,-5.5233,-5.524,-5.5247,-5.5119,-5.5318,-5.5645,-5.5678,-5.5252,-5.5248,-5.5245,0,-5.5107,-5.5191,-5.5298,-5.531,-5.5305,-5.5357,-5.5357,-5.5362,-5.5392,-5.5424,-5.5443,-5.5486,-5.5509,-5.5544,-5.5498,-5.5418,-5.5627,-5.5507,-5.5615,-5.5617,-5.5665,-5.5663,-5.6002,-5.5682,-5.5681,-5.568,-5.568,0,-5.5364,-5.5466,-5.5399,-5.5466,-5.5578,-5.5515,-5.5628,-5.5617,-5.5623,-5.5686,-5.5605,-5.5666,-5.5601,-5.5657,-5.5622,-5.5728,-5.5739,-5.5728,-5.5718,-5.5736,-5.5738,-5.5755,-5.5739,-5.5689,-5.5687,-5.5685,-5.5684,0,-5.5636,-5.5595,-5.5706,-5.5691,-5.569,-5.5774,-5.5762,-5.5823,-5.5799,-5.588,-5.5895,-5.5858,-5.5919,-5.5876,-5.5938,-5.5914,-5.6055,-5.6023,-5.6051,-5.6043,-5.6154,-5.6145,-5.6517,-5.6563,-5.6212,-5.6216,-5.6218,0,-5.5803,-5.5879,-5.5873,-5.5909,-5.5915,-5.5974,-5.6004,-5.5945,-5.598,-5.5999,-5.6059,-5.6113,-5.6154,-5.6257,-5.6236,-5.6283,-5.6252,-5.6379,-5.6259,-5.6275,-5.6256,-5.6253,-5.6261,-5.6405,-5.6409,-5.6412,-5.6415,0,-5.6104,-5.608,-5.6126,-5.6167,-5.6205,-5.6234,-5.6256,-5.6291,-5.6231,-5.6275,-5.6336,-5.6368,-5.6431,-5.6486,-5.6525,-5.6526,-5.6463,-5.6453,-5.648,-5.6501,-5.6515,-5.651,-5.6119,-5.6445,-5.6442,-5.644,-5.6438,-5.6437,-5.6329,-5.6393,-5.6399,-5.6454,-5.6464,-5.6488,-5.6545,-5.6527,-5.6577,-5.6623,-5.6585,-5.6659,-5.6669,-5.6715,-5.6725,-5.6782,-5.673,-5.677,-5.6781,-5.6792,-5.6808,-5.6505,-5.6789,-5.6788,-5.6787,-5.6787,-5.6786,0,-5.6627,-5.6626,-5.6677,-5.6711,-5.6755,-5.6688,-5.671,-5.6751,-5.6817,-5.6832,-5.6873,-5.6945,-5.6998,-5.6981,-5.703,-5.708,-5.7051,-5.7094,-5.7091,-5.7093,-5.6851,-5.6823,-5.7116,-5.7116,-5.7116,-5.7116,-5.7116,-5.7116,-5.6788,-5.6893,-5.687,-5.698,-5.6978,-5.7049,-5.7068,-5.7089,-5.71,-5.7184,-5.7228,-5.7216,-5.7218,-5.7266,-5.7313,-5.7306,-5.7329,-5.7383,-5.7367,-5.7142,-5.7109,-5.7078,-5.7051,-5.7388,-5.7389,-5.7603,-5.7605,-5.7607]},{"header":{"parameterUnit":"m.s-1","parameterCategory":1,"la1":30.2991,"la2":30.254,"lo1":-89.0895,"lo2":-89.0444,"dy":0.0017,"dx":0.0017,"nx":28,"ny":28,"refTime":"2024-08-24T03:00:00:Z","depth":0,"parameterNumber":3,"parameterNumberName":"V-component_of_WINDS"},"data":[0,0,0,0,0,0,0,0,0,0,0,0,0,0,0,0,0,0,0,0,0,0,0,0,0,0,0,0,0,0,0,0,0,0,0,0,0,0,0,0,0,0,0,0,0,0,0,0,0,0,0,0,0,0,0,0,0,0,-1.9474,-1.9474,0,-1.9426,-1.9425,-1.9425,-1.9366,-1.9365,-1.9364,-1.9363,-1.9313,-1.9313,-1.9312,0,0,0,0,0,0,0,0,0,0,0,0,0,-1.9516,-1.9516,-1.9474,-1.9474,-1.9473,-1.9426,-1.9425,-1.9424,-1.9366,-1.9365,-1.9364,-1.9363,-1.9314,-1.9313,-1.9312,0,0,0,0,0,0,0,0,0,0,0,0,0,-1.9486,-1.9515,-1.9475,-1.9438,-1.9435,-1.9426,-1.9425,-1.9424,-1.9366,-1.9365,-1.9364,-1.9362,-1.9314,-1.9313,-1.9312,-1.9335,0,0,-1.931,-1.931,0,0,0,0,0,0,0,0,-1.9488,-1.9484,-1.9444,-1.9441,-1.9437,-1.94,-1.9421,-1.9394,-1.9367,-1.9392,-1.9363,-1.9362,-1.9344,-1.934,-1.9334,-1.9333,-1.9331,-1.931,-1.931,-1.9309,-1.9309,0,0,0,0,0,0,0,-1.949,-1.9486,-1.9455,-1.9444,-1.9439,-1.9424,-1.9418,-1.9416,-1.9376,-1.939,-1.9386,-1.9381,-1.9341,-1.9335,-1.9333,-1.933,-1.931,-1.9309,-1.9309,-1.9309,-1.9344,-1.9345,0,0,0,0,0,0,-1.9497,-1.9488,-1.9457,-1.9454,-1.9459,-1.9425,-1.9418,-1.9413,-1.9376,-1.9369,-1.9382,-1.9378,-1.9337,-1.9333,-1.9331,-1.9354,-1.9309,-1.9309,-1.9308,-1.9342,-1.9344,-1.9345,0,0,0,0,0,0,-1.9498,-1.9495,-1.9459,-1.947,-1.9464,-1.9425,-1.9421,-1.9413,-1.9407,-1.937,-1.9362,-1.9383,-1.9336,-1.9332,-1.9334,-1.9352,-1.9308,-1.9308,-1.9341,-1.9343,-1.9345,-1.9402,0,0,0,0,0,0,-1.95,-1.9496,-1.9504,-1.947,-1.9464,-1.9464,-1.9422,-1.9413,-1.9406,-1.9401,-1.9369,-1.9362,-1.9334,-1.9336,-1.9333,-1.935,-1.9307,-1.9339,-1.9342,-1.9344,-1.9398,-1.9406,-1.9412,0,0,0,0,0,-1.9502,-1.9523,-1.9505,-1.9502,-1.9474,-1.9465,-1.9461,-1.9428,-1.9408,-1.9416,-1.9392,-1.9363,-1.935,-1.9336,-1.9333,-1.935,-1.9338,-1.9341,-1.9344,-1.9395,-1.9404,-1.9412,0,0,0,0,0,0,-1.956,-1.9518,-1.9498,-1.9509,-1.9491,-1.9455,-1.9464,-1.9439,-1.9426,-1.9422,-1.9382,-1.9375,-1.9382,-1.9366,-1.9352,-1.9369,-1.934,-1.9342,-1.938,-1.9388,-1.9395,-1.9398,-1.9307,0,0,0,0,0,-1.9574,-1.9571,-1.9534,-1.9547,-1.9539,-1.9503,-1.9498,-1.9474,-1.9454,-1.9446,-1.9423,-1.9404,-1.9395,-1.9391,-1.9381,-1.9396,-1.9387,-1.9405,-1.9412,-1.9418,-1.9421,-1.9426,-1.9434,-1.9355,-1.9355,-1.9355,0,0,-1.9604,-1.958,-1.958,-1.9558,-1.9541,-1.9538,-1.9497,-1.9496,-1.9493,-1.9446,-1.9447,-1.9429,-1.9405,-1.9414,-1.9417,-1.9401,-1.944,-1.9422,-1.9427,-1.9426,-1.943,-1.9438,-1.9444,-1.9358,-1.9357,-1.9357,0,0,-1.9655,-1.9637,-1.9646,-1.963,-1.9605,-1.9581,-1.9583,-1.9551,-1.9537,-1.9537,-1.9501,-1.9497,-1.9484,-1.9468,-1.9458,-1.9503,-1.9476,-1.9501,-1.9537,-1.9543,-1.9549,-1.9554,-1.957,-1.9576,-1.9504,-1.9504,-1.9504,0,-1.9695,-1.9689,-1.9654,-1.9654,-1.9645,-1.9602,-1.961,-1.9596,-1.957,-1.9564,-1.9547,-1.9528,-1.9509,-1.9513,-1.9524,-1.9518,-1.9518,-1.9505,-1.9551,-1.9556,-1.956,-1.9574,-1.958,-1.9507,-1.9507,-1.9506,-1.9506,0,-1.9739,-1.9735,-1.9745,-1.972,-1.9712,-1.9717,-1.9681,-1.9677,-1.9654,-1.9632,-1.9632,-1.9607,-1.9592,-1.9591,-1.9568,-1.9591,-1.9582,-1.9558,-1.9528,-1.9571,-1.9584,-1.9589,-1.9512,-1.951,-1.9509,-1.9509,0,0,-1.9827,-1.9781,-1.9786,-1.9773,-1.9742,-1.9739,-1.9741,-1.9725,-1.9722,-1.9705,-1.9705,-1.9694,-1.9672,-1.9661,-1.9636,-1.9641,-1.9677,-1.9616,-1.9615,-1.9628,-1.97,-1.9718,-1.9725,-1.9659,-1.966,-1.9661,-1.9702,0,-1.9873,-1.9874,-1.9842,-1.9852,-1.9848,-1.9806,-1.9807,-1.9788,-1.9767,-1.976,-1.9737,-1.9729,-1.9701,-1.9694,-1.9697,-1.9672,-1.9691,-1.9669,-1.9659,-1.9659,-1.9666,-1.9732,-1.9751,-1.9791,-1.9707,-1.9708,-1.9708,0,-1.9927,-1.9913,-1.9922,-1.989,-1.9887,-1.9889,-1.9871,-1.9865,-1.9842,-1.9827,-1.9814,-1.9785,-1.9784,-1.9755,-1.9753,-1.9739,-1.9732,-1.9719,-1.972,-1.9718,-1.9686,-1.9731,-1.9803,-1.981,-1.9716,-1.9715,-1.9715,0,-1.999,-1.9973,-1.9976,-1.9967,-1.9929,-1.9932,-1.9916,-1.9892,-1.9884,-1.9868,-1.9863,-1.9848,-1.9839,-1.9828,-1.9795,-1.9777,-1.9796,-1.9765,-1.9783,-1.9784,-1.9789,-1.9789,-1.9861,-1.9786,-1.9785,-1.9785,-1.9785,0,-2.0045,-2.0052,-2.0004,-2.0006,-2.0013,-1.9975,-1.9982,-1.9963,-1.9941,-1.9938,-1.9901,-1.9899,-1.9856,-1.9849,-1.9824,-1.9826,-1.9822,-1.9809,-1.9802,-1.9812,-1.9814,-1.9808,-1.9804,-1.9787,-1.9787,-1.9786,-1.9786,0,-2.0117,-2.0084,-2.0085,-2.0049,-2.004,-2.0047,-2.0016,-2.0016,-1.9992,-1.9989,-1.9986,-1.9948,-1.9938,-1.9904,-1.9886,-1.9869,-1.9878,-1.9865,-1.9886,-1.9881,-1.9901,-1.99,-1.9971,-1.9979,-1.9899,-1.99,-1.9901,0,-2.0154,-2.0158,-2.0123,-2.0118,-2.0104,-2.0097,-2.0089,-2.0051,-2.0044,-2.0017,-2.0021,-2.0007,-1.9995,-1.998,-1.9951,-1.9936,-1.9922,-1.9949,-1.992,-1.993,-1.9922,-1.9922,-1.9922,-1.9955,-1.9956,-1.9957,-1.9958,0,-2.0223,-2.0206,-2.0196,-2.018,-2.0171,-2.0156,-2.014,-2.0138,-2.0096,-2.0089,-2.0078,-2.0069,-2.0049,-2.0036,-2.0016,-2.0,-1.9972,-1.9967,-1.997,-1.998,-1.9992,-1.9985,-1.9902,-1.9965,-1.9964,-1.9964,-1.9963,-1.9963,-2.0278,-2.028,-2.0255,-2.0244,-2.0227,-2.0212,-2.021,-2.0186,-2.0176,-2.0158,-2.0136,-2.0127,-2.0103,-2.0073,-2.0059,-2.0051,-2.0036,-2.0041,-2.0042,-2.0044,-2.0048,-1.9993,-2.0047,-2.0047,-2.0047,-2.0046,-2.0046,0,-2.0345,-2.0326,-2.0317,-2.0294,-2.0286,-2.026,-2.024,-2.0234,-2.0227,-2.0207,-2.0195,-2.0182,-2.0168,-2.0138,-2.0122,-2.0121,-2.0108,-2.0118,-2.0118,-2.0114,-2.0063,-2.0062,-2.0129,-2.0129,-2.0129,-2.0129,-2.0129,-2.0129,-2.0378,-2.038,-2.0361,-2.0353,-2.0334,-2.0326,-2.0316,-2.0302,-2.0285,-2.0272,-2.0261,-2.0241,-2.0217,-2.0198,-2.0185,-2.0176,-2.0172,-2.0186,-2.0173,-2.0126,-2.0118,-2.0111,-2.0109,-2.0186,-2.0186,-2.0225,-2.0226,-2.0226]}]]